TimePDT,TemperatureF,Dew PointF,Humidity,Sea Level PressureIn,VisibilityMPH,Wind Direction,Wind SpeedMPH,Gust SpeedMPH,PrecipitationIn,Events,Conditions,WindDirDegrees,DateUTC
12:53 AM,48.0,41.0,77,30.28,10.0,Calm,Calm,-,N/A,,Clear,0,2012-10-05 07:53:00
1:53 AM,48.9,39.0,69,30.29,10.0,Calm,Calm,-,N/A,,Clear,0,2012-10-05 08:53:00
2:53 AM,46.9,37.9,71,30.29,10.0,Calm,Calm,-,N/A,,Clear,0,2012-10-05 09:53:00
3:53 AM,46.0,37.9,73,30.28,10.0,Calm,Calm,-,N/A,,Clear,0,2012-10-05 10:53:00
4:53 AM,45.0,41.0,86,30.28,10.0,Calm,Calm,-,N/A,,Clear,0,2012-10-05 11:53:00
5:53 AM,45.0,39.9,82,30.29,10.0,North,4.6,-,N/A,,Clear,10,2012-10-05 12:53:00
6:53 AM,46.0,34.0,63,30.30,10.0,NNE,3.5,-,N/A,,Clear,30,2012-10-05 13:53:00
7:53 AM,45.0,37.0,74,30.31,10.0,Calm,Calm,-,N/A,,Clear,0,2012-10-05 14:53:00
8:53 AM,48.0,37.9,68,30.32,10.0,Calm,Calm,-,N/A,,Clear,0,2012-10-05 15:53:00
9:53 AM,51.1,37.0,59,30.32,10.0,North,3.5,-,N/A,,Clear,360,2012-10-05 16:53:00
10:53 AM,55.0,34.0,45,30.31,10.0,Calm,Calm,-,N/A,,Clear,0,2012-10-05 17:53:00
11:53 AM,59.0,33.1,38,30.30,10.0,Variable,3.5,-,N/A,,Clear,0,2012-10-05 18:53:00
12:53 PM,61.0,28.0,29,30.30,10.0,NNW,4.6,-,N/A,,Clear,340,2012-10-05 19:53:00
1:53 PM,64.0,35.1,34,30.27,10.0,North,4.6,-,N/A,,Clear,10,2012-10-05 20:53:00
2:53 PM,64.0,32.0,30,30.26,10.0,Variable,5.8,-,N/A,,Clear,0,2012-10-05 21:53:00
3:53 PM,64.9,30.9,28,30.25,10.0,NNW,8.1,-,N/A,,Clear,340,2012-10-05 22:53:00
4:53 PM,64.9,33.1,31,30.24,10.0,North,6.9,-,N/A,,Clear,350,2012-10-05 23:53:00
5:53 PM,63.0,35.1,35,30.23,10.0,NNW,3.5,-,N/A,,Clear,340,2012-10-06 00:53:00
6:53 PM,57.9,36.0,44,30.24,10.0,Variable,3.5,-,N/A,,Clear,0,2012-10-06 01:53:00
7:53 PM,55.9,36.0,47,30.24,10.0,NNW,3.5,-,N/A,,Clear,330,2012-10-06 02:53:00
8:53 PM,52.0,36.0,54,30.25,10.0,Calm,Calm,-,N/A,,Clear,0,2012-10-06 03:53:00
9:53 PM,53.1,36.0,52,30.25,10.0,NNE,4.6,-,N/A,,Clear,30,2012-10-06 04:53:00
10:53 PM,52.0,36.0,54,30.25,10.0,NNE,3.5,-,N/A,,Clear,20,2012-10-06 05:53:00
11:53 PM,48.9,36.0,61,30.25,10.0,Calm,Calm,-,N/A,,Clear,0,2012-10-06 06:53:00